GEFSGL_prec_meanprecacc_084.txt.gz
Total_Precipitation_Accumulation
0.00 0.00 0.00 0.00 0.00 0.01 0.02 0.02 0.03 0.03 0.03 0.05 0.07 0.10 0.13 0.18 0.22 0.25 0.26 0.27 0.28 0.28 0.28 0.31 0.33 0.37 0.43 0.43 0.42 0.41 0.39 0.44 0.44 0.12 0.05 0.07 0.13 0.18 0.19 0.18 0.16 0.15 0.18
0.00 0.00 0.00 0.00 0.01 0.02 0.04 0.06 0.06 0.06 0.07 0.09 0.12 0.16 0.20 0.23 0.26 0.33 0.36 0.37 0.42 0.41 0.38 0.37 0.39 0.41 0.45 0.48 0.50 0.49 0.43 0.39 0.44 0.27 0.08 0.07 0.12 0.19 0.23 0.25 0.23 0.19 0.16
0.00 0.00 0.00 0.00 0.01 0.03 0.06 0.10 0.15 0.19 0.21 0.23 0.26 0.31 0.38 0.41 0.43 0.46 0.50 0.58 0.64 0.62 0.60 0.59 0.54 0.52 0.55 0.52 0.53 0.53 0.48 0.41 0.38 0.34 0.18 0.12 0.15 0.21 0.28 0.31 0.32 0.29 0.23
0.00 0.00 0.00 0.01 0.04 0.06 0.09 0.15 0.24 0.34 0.41 0.46 0.50 0.54 0.59 0.67 0.78 0.83 0.81 0.81 0.81 0.78 0.76 0.77 0.76 0.75 0.74 0.71 0.69 0.62 0.57 0.54 0.46 0.41 0.30 0.22 0.23 0.25 0.35 0.39 0.40 0.37 0.33
0.01 0.01 0.02 0.05 0.10 0.17 0.20 0.23 0.31 0.40 0.48 0.52 0.53 0.55 0.59 0.81 1.15 1.27 1.11 0.90 0.76 0.72 0.70 0.72 0.79 0.89 0.94 0.97 1.01 0.87 0.74 0.73 0.66 0.57 0.45 0.34 0.30 0.33 0.41 0.45 0.52 0.48 0.44
0.02 0.03 0.06 0.11 0.18 0.25 0.29 0.32 0.39 0.45 0.48 0.47 0.48 0.48 0.50 0.67 1.07 1.20 0.92 0.64 0.52 0.54 0.59 0.57 0.59 0.71 0.77 0.81 0.92 0.91 0.89 0.94 0.92 0.80 0.65 0.54 0.43 0.41 0.45 0.55 0.63 0.69 0.63
0.04 0.06 0.10 0.13 0.17 0.20 0.23 0.28 0.33 0.31 0.27 0.29 0.35 0.34 0.34 0.45 0.81 0.93 0.64 0.35 0.25 0.30 0.39 0.42 0.43 0.50 0.60 0.63 0.65 0.64 0.69 0.79 0.92 0.96 0.91 0.74 0.60 0.52 0.56 0.60 0.65 0.73 0.72
0.04 0.07 0.10 0.12 0.16 0.14 0.13 0.17 0.20 0.17 0.16 0.19 0.21 0.17 0.15 0.23 0.55 0.74 0.51 0.21 0.15 0.20 0.27 0.32 0.32 0.36 0.49 0.65 0.72 0.60 0.53 0.63 0.83 0.96 1.06 0.95 0.81 0.76 0.84 0.90 0.89 0.84 0.84
0.04 0.05 0.07 0.10 0.14 0.12 0.10 0.11 0.14 0.14 0.13 0.12 0.10 0.08 0.06 0.09 0.37 0.69 0.54 0.20 0.15 0.15 0.20 0.28 0.27 0.24 0.40 0.52 0.56 0.50 0.41 0.47 0.57 0.75 0.83 0.81 0.77 0.82 0.96 1.09 1.10 1.08 1.11
0.02 0.03 0.03 0.04 0.06 0.05 0.04 0.03 0.04 0.05 0.06 0.05 0.04 0.03 0.03 0.04 0.20 0.61 0.66 0.28 0.19 0.14 0.15 0.21 0.29 0.27 0.35 0.38 0.38 0.40 0.42 0.43 0.39 0.39 0.42 0.46 0.51 0.57 0.74 0.96 1.12 1.20 1.23
0.00 0.00 0.00 0.00 0.01 0.01 0.01 0.02 0.02 0.03 0.03 0.03 0.02 0.02 0.02 0.02 0.07 0.38 0.74 0.51 0.28 0.17 0.16 0.21 0.23 0.25 0.27 0.26 0.27 0.33 0.46 0.37 0.28 0.29 0.31 0.33 0.40 0.51 0.64 0.79 0.99 1.18 1.26
0.00 0.00 0.00 0.00 0.01 0.01 0.02 0.02 0.02 0.03 0.03 0.03 0.03 0.03 0.03 0.02 0.06 0.23 0.48 0.58 0.41 0.21 0.20 0.16 0.16 0.17 0.16 0.16 0.18 0.24 0.22 0.18 0.21 0.22 0.23 0.27 0.36 0.48 0.60 0.71 0.85 1.03 1.20
0.00 0.00 0.00 0.01 0.01 0.02 0.02 0.03 0.03 0.04 0.06 0.07 0.06 0.05 0.04 0.04 0.08 0.20 0.23 0.27 0.34 0.29 0.31 0.26 0.13 0.09 0.09 0.09 0.12 0.14 0.14 0.16 0.21 0.21 0.21 0.26 0.35 0.46 0.51 0.57 0.65 0.80 0.93
0.00 0.01 0.01 0.01 0.02 0.02 0.03 0.04 0.04 0.07 0.18 0.21 0.15 0.11 0.08 0.07 0.18 0.34 0.24 0.14 0.18 0.24 0.26 0.21 0.12 0.09 0.08 0.07 0.05 0.07 0.11 0.14 0.17 0.19 0.20 0.21 0.24 0.32 0.40 0.52 0.60 0.70 0.82
0.01 0.01 0.01 0.02 0.03 0.03 0.03 0.04 0.06 0.09 0.26 0.36 0.26 0.24 0.22 0.25 0.36 0.44 0.34 0.28 0.27 0.27 0.24 0.19 0.14 0.12 0.11 0.10 0.07 0.05 0.06 0.09 0.11 0.13 0.14 0.16 0.20 0.27 0.35 0.44 0.56 0.65 0.79
0.01 0.02 0.02 0.03 0.04 0.04 0.04 0.04 0.05 0.07 0.13 0.15 0.17 0.24 0.24 0.34 0.36 0.28 0.27 0.28 0.27 0.25 0.23 0.21 0.14 0.10 0.09 0.08 0.08 0.06 0.05 0.06 0.08 0.10 0.11 0.13 0.18 0.24 0.30 0.36 0.47 0.61 0.74
0.02 0.03 0.05 0.05 0.05 0.05 0.06 0.08 0.08 0.06 0.06 0.06 0.08 0.13 0.21 0.28 0.23 0.20 0.23 0.21 0.20 0.19 0.20 0.15 0.10 0.09 0.08 0.07 0.07 0.06 0.05 0.04 0.05 0.07 0.08 0.09 0.13 0.19 0.24 0.30 0.38 0.50 0.65
0.02 0.03 0.05 0.06 0.06 0.08 0.09 0.10 0.12 0.11 0.09 0.06 0.05 0.07 0.13 0.18 0.17 0.16 0.18 0.20 0.18 0.15 0.15 0.12 0.09 0.08 0.07 0.08 0.07 0.06 0.05 0.04 0.05 0.05 0.06 0.07 0.10 0.15 0.20 0.25 0.33 0.45 0.56
0.02 0.04 0.06 0.07 0.07 0.09 0.11 0.12 0.12 0.11 0.10 0.08 0.06 0.06 0.08 0.11 0.11 0.11 0.13 0.16 0.13 0.10 0.09 0.08 0.07 0.07 0.07 0.07 0.07 0.06 0.06 0.06 0.05 0.05 0.05 0.06 0.07 0.11 0.15 0.19 0.25 0.35 0.46
0.02 0.04 0.08 0.08 0.09 0.10 0.12 0.13 0.13 0.14 0.12 0.11 0.09 0.09 0.14 0.17 0.14 0.11 0.12 0.13 0.11 0.08 0.07 0.06 0.06 0.06 0.07 0.07 0.07 0.07 0.07 0.06 0.05 0.05 0.05 0.04 0.05 0.08 0.12 0.15 0.20 0.28 0.38
0.04 0.05 0.08 0.09 0.10 0.12 0.15 0.16 0.16 0.17 0.16 0.13 0.10 0.10 0.23 0.24 0.15 0.10 0.10 0.11 0.11 0.10 0.08 0.07 0.07 0.07 0.07 0.08 0.08 0.07 0.07 0.06 0.05 0.05 0.05 0.04 0.04 0.05 0.07 0.11 0.16 0.22 0.31
0.06 0.08 0.09 0.12 0.13 0.15 0.18 0.18 0.18 0.18 0.17 0.15 0.11 0.09 0.14 0.15 0.13 0.11 0.10 0.10 0.09 0.10 0.10 0.10 0.09 0.09 0.10 0.12 0.12 0.11 0.08 0.07 0.05 0.05 0.05 0.04 0.04 0.04 0.05 0.08 0.11 0.18 0.25
0.10 0.12 0.12 0.12 0.14 0.16 0.17 0.15 0.16 0.17 0.16 0.14 0.13 0.12 0.12 0.11 0.11 0.11 0.11 0.10 0.10 0.10 0.10 0.11 0.11 0.09 0.10 0.11 0.11 0.13 0.13 0.09 0.07 0.07 0.07 0.06 0.05 0.04 0.05 0.07 0.10 0.16 0.24
0.12 0.12 0.12 0.14 0.15 0.17 0.17 0.16 0.17 0.18 0.17 0.16 0.15 0.13 0.11 0.10 0.10 0.09 0.09 0.09 0.09 0.09 0.10 0.12 0.12 0.11 0.12 0.13 0.12 0.11 0.11 0.11 0.10 0.09 0.08 0.07 0.07 0.06 0.06 0.08 0.09 0.14 0.21
0.09 0.11 0.14 0.17 0.19 0.20 0.20 0.19 0.19 0.19 0.19 0.18 0.16 0.13 0.11 0.10 0.09 0.08 0.08 0.08 0.09 0.09 0.09 0.11 0.13 0.14 0.14 0.14 0.14 0.14 0.13 0.15 0.17 0.20 0.24 0.25 0.21 0.15 0.13 0.12 0.12 0.13 0.18
0.09 0.12 0.16 0.20 0.22 0.23 0.25 0.26 0.23 0.22 0.22 0.19 0.16 0.14 0.13 0.11 0.10 0.09 0.09 0.11 0.13 0.12 0.11 0.11 0.12 0.15 0.15 0.15 0.15 0.16 0.18 0.21 0.28 0.39 0.47 0.44 0.30 0.18 0.14 0.14 0.13 0.14 0.18

GEFSGL_prec_meanprecacc_090.txt.gz
Total_Precipitation_Accumulation
0.00 0.00 0.00 0.00 0.00 0.01 0.02 0.02 0.03 0.03 0.03 0.05 0.07 0.10 0.13 0.18 0.22 0.25 0.26 0.27 0.28 0.28 0.28 0.31 0.33 0.37 0.43 0.43 0.42 0.41 0.39 0.44 0.44 0.12 0.05 0.07 0.13 0.18 0.19 0.18 0.16 0.15 0.18
0.00 0.00 0.00 0.00 0.01 0.02 0.04 0.06 0.06 0.06 0.07 0.09 0.12 0.16 0.20 0.23 0.26 0.33 0.36 0.37 0.42 0.41 0.38 0.37 0.39 0.41 0.45 0.48 0.50 0.49 0.43 0.39 0.44 0.27 0.08 0.07 0.12 0.19 0.23 0.25 0.24 0.19 0.16
0.00 0.00 0.00 0.00 0.01 0.03 0.06 0.10 0.15 0.19 0.21 0.23 0.26 0.31 0.38 0.41 0.43 0.46 0.50 0.58 0.64 0.62 0.60 0.59 0.54 0.52 0.55 0.52 0.53 0.53 0.48 0.41 0.38 0.34 0.18 0.12 0.15 0.21 0.28 0.31 0.32 0.29 0.23
0.00 0.00 0.00 0.01 0.04 0.06 0.09 0.15 0.24 0.34 0.41 0.46 0.50 0.54 0.59 0.67 0.78 0.83 0.81 0.81 0.81 0.78 0.76 0.77 0.76 0.75 0.74 0.71 0.69 0.62 0.57 0.54 0.47 0.41 0.30 0.22 0.23 0.25 0.35 0.39 0.40 0.37 0.33
0.01 0.01 0.02 0.05 0.10 0.17 0.20 0.23 0.31 0.40 0.48 0.52 0.53 0.55 0.59 0.81 1.15 1.27 1.11 0.90 0.76 0.72 0.70 0.72 0.79 0.89 0.94 0.97 1.01 0.87 0.74 0.73 0.67 0.59 0.45 0.35 0.30 0.34 0.41 0.45 0.53 0.49 0.44
0.02 0.03 0.06 0.11 0.18 0.25 0.29 0.32 0.39 0.45 0.48 0.47 0.48 0.48 0.50 0.67 1.07 1.21 0.92 0.64 0.52 0.54 0.59 0.58 0.59 0.71 0.77 0.82 0.93 0.92 0.90 0.95 0.93 0.81 0.67 0.55 0.43 0.41 0.46 0.56 0.65 0.70 0.64
0.04 0.06 0.10 0.13 0.17 0.20 0.23 0.28 0.33 0.31 0.27 0.29 0.35 0.34 0.34 0.45 0.81 0.94 0.65 0.35 0.25 0.30 0.39 0.42 0.43 0.50 0.60 0.63 0.66 0.65 0.71 0.81 0.95 0.98 0.93 0.75 0.60 0.52 0.57 0.62 0.67 0.74 0.72
0.04 0.07 0.10 0.12 0.16 0.14 0.13 0.17 0.20 0.17 0.16 0.19 0.21 0.17 0.15 0.23 0.55 0.74 0.52 0.22 0.15 0.20 0.28 0.32 0.32 0.36 0.50 0.66 0.72 0.60 0.54 0.64 0.86 1.00 1.10 0.98 0.82 0.77 0.85 0.91 0.91 0.87 0.85
0.04 0.05 0.07 0.10 0.14 0.12 0.10 0.11 0.14 0.14 0.13 0.12 0.11 0.08 0.06 0.10 0.38 0.69 0.54 0.20 0.15 0.15 0.20 0.28 0.27 0.24 0.40 0.53 0.58 0.53 0.43 0.48 0.58 0.78 0.88 0.87 0.82 0.86 0.98 1.13 1.16 1.15 1.16
0.02 0.03 0.03 0.04 0.06 0.05 0.04 0.03 0.04 0.06 0.06 0.05 0.04 0.03 0.03 0.04 0.20 0.61 0.67 0.28 0.19 0.14 0.15 0.21 0.29 0.28 0.36 0.40 0.41 0.43 0.46 0.45 0.39 0.40 0.46 0.52 0.58 0.66 0.84 1.06 1.18 1.25 1.26
0.00 0.00 0.00 0.00 0.01 0.01 0.01 0.02 0.02 0.03 0.03 0.03 0.03 0.02 0.02 0.03 0.07 0.38 0.75 0.52 0.29 0.18 0.17 0.22 0.24 0.26 0.29 0.29 0.31 0.37 0.49 0.39 0.30 0.31 0.33 0.37 0.45 0.56 0.72 0.91 1.11 1.24 1.29
0.00 0.00 0.00 0.00 0.01 0.01 0.02 0.02 0.02 0.03 0.03 0.03 0.03 0.03 0.03 0.02 0.06 0.23 0.49 0.60 0.43 0.24 0.22 0.17 0.17 0.18 0.18 0.20 0.22 0.29 0.26 0.23 0.28 0.28 0.28 0.31 0.38 0.50 0.63 0.75 0.93 1.12 1.24
0.00 0.00 0.00 0.01 0.01 0.02 0.02 0.03 0.03 0.04 0.06 0.07 0.07 0.06 0.04 0.04 0.08 0.21 0.24 0.29 0.36 0.31 0.32 0.28 0.15 0.11 0.12 0.12 0.15 0.19 0.19 0.23 0.31 0.30 0.27 0.29 0.36 0.47 0.53 0.60 0.69 0.87 1.01
0.00 0.01 0.01 0.01 0.02 0.02 0.03 0.04 0.05 0.07 0.18 0.22 0.16 0.12 0.09 0.09 0.19 0.35 0.25 0.15 0.19 0.26 0.27 0.23 0.14 0.11 0.11 0.09 0.07 0.10 0.15 0.20 0.24 0.26 0.24 0.24 0.27 0.35 0.44 0.55 0.64 0.74 0.88
0.01 0.01 0.01 0.02 0.03 0.03 0.04 0.04 0.06 0.09 0.26 0.38 0.29 0.27 0.25 0.28 0.38 0.46 0.37 0.31 0.30 0.30 0.28 0.23 0.16 0.14 0.14 0.13 0.09 0.07 0.09 0.13 0.17 0.19 0.20 0.21 0.24 0.31 0.38 0.48 0.61 0.70 0.84
0.01 0.02 0.02 0.03 0.04 0.04 0.04 0.04 0.05 0.08 0.14 0.16 0.18 0.26 0.27 0.36 0.38 0.31 0.30 0.31 0.31 0.29 0.27 0.26 0.17 0.12 0.11 0.10 0.10 0.08 0.07 0.09 0.12 0.15 0.17 0.19 0.22 0.28 0.34 0.39 0.51 0.64 0.77
0.02 0.03 0.05 0.05 0.05 0.05 0.06 0.08 0.09 0.07 0.06 0.06 0.09 0.14 0.23 0.30 0.26 0.23 0.25 0.24 0.23 0.22 0.24 0.18 0.12 0.11 0.10 0.09 0.09 0.08 0.07 0.06 0.07 0.11 0.13 0.14 0.17 0.22 0.28 0.34 0.41 0.53 0.67
0.02 0.03 0.06 0.06 0.07 0.08 0.10 0.12 0.13 0.13 0.10 0.06 0.05 0.07 0.14 0.20 0.19 0.17 0.20 0.22 0.19 0.16 0.17 0.14 0.12 0.10 0.09 0.09 0.09 0.08 0.07 0.07 0.08 0.09 0.10 0.10 0.13 0.18 0.23 0.28 0.35 0.46 0.58
0.02 0.04 0.07 0.08 0.08 0.10 0.11 0.13 0.13 0.12 0.12 0.09 0.07 0.06 0.08 0.12 0.12 0.12 0.14 0.18 0.16 0.12 0.11 0.10 0.09 0.09 0.09 0.09 0.09 0.08 0.08 0.08 0.07 0.08 0.08 0.09 0.10 0.14 0.19 0.21 0.27 0.37 0.48
0.02 0.05 0.08 0.09 0.10 0.11 0.13 0.14 0.15 0.15 0.14 0.12 0.10 0.09 0.15 0.19 0.15 0.12 0.13 0.14 0.14 0.11 0.09 0.08 0.07 0.07 0.09 0.09 0.09 0.10 0.09 0.08 0.08 0.08 0.07 0.07 0.07 0.10 0.14 0.17 0.22 0.30 0.40
0.04 0.05 0.08 0.10 0.11 0.13 0.16 0.18 0.19 0.19 0.18 0.15 0.11 0.10 0.25 0.28 0.18 0.13 0.13 0.13 0.13 0.12 0.10 0.09 0.08 0.08 0.09 0.10 0.10 0.10 0.09 0.08 0.07 0.07 0.07 0.06 0.06 0.07 0.10 0.13 0.18 0.24 0.33
0.07 0.08 0.10 0.13 0.14 0.17 0.20 0.20 0.20 0.21 0.19 0.17 0.12 0.10 0.16 0.18 0.15 0.13 0.12 0.11 0.11 0.11 0.12 0.13 0.11 0.10 0.12 0.14 0.14 0.13 0.11 0.08 0.07 0.07 0.07 0.06 0.06 0.06 0.07 0.10 0.13 0.19 0.27
0.11 0.13 0.13 0.13 0.15 0.18 0.18 0.16 0.17 0.19 0.18 0.16 0.15 0.14 0.14 0.13 0.13 0.13 0.12 0.11 0.11 0.11 0.11 0.13 0.13 0.11 0.12 0.13 0.13 0.15 0.15 0.11 0.08 0.08 0.09 0.07 0.06 0.06 0.06 0.08 0.11 0.17 0.25
0.13 0.13 0.14 0.15 0.17 0.18 0.19 0.18 0.18 0.19 0.19 0.19 0.17 0.15 0.13 0.12 0.11 0.11 0.10 0.10 0.10 0.10 0.11 0.13 0.14 0.13 0.13 0.15 0.14 0.13 0.13 0.12 0.12 0.11 0.09 0.09 0.08 0.07 0.07 0.09 0.10 0.15 0.22
0.10 0.12 0.15 0.18 0.21 0.22 0.22 0.21 0.20 0.20 0.21 0.20 0.18 0.15 0.13 0.11 0.10 0.09 0.09 0.10 0.10 0.10 0.11 0.13 0.14 0.15 0.15 0.15 0.15 0.15 0.14 0.16 0.19 0.22 0.26 0.28 0.23 0.17 0.14 0.14 0.13 0.15 0.20
0.10 0.13 0.17 0.21 0.24 0.25 0.27 0.28 0.25 0.24 0.24 0.21 0.18 0.16 0.14 0.13 0.12 0.10 0.10 0.12 0.14 0.14 0.12 0.12 0.13 0.16 0.17 0.16 0.16 0.17 0.19 0.22 0.30 0.41 0.50 0.47 0.33 0.21 0.16 0.16 0.15 0.16 0.20

GEFSGL_prec_meanprecacc_096.txt.gz
Total_Precipitation_Accumulation
0.00 0.00 0.00 0.00 0.00 0.01 0.02 0.02 0.03 0.03 0.03 0.05 0.07 0.10 0.13 0.18 0.22 0.25 0.26 0.27 0.28 0.28 0.28 0.31 0.33 0.37 0.43 0.43 0.42 0.41 0.39 0.44 0.44 0.12 0.05 0.07 0.13 0.18 0.19 0.18 0.16 0.15 0.18
0.00 0.00 0.00 0.00 0.01 0.02 0.04 0.06 0.06 0.06 0.07 0.09 0.12 0.16 0.20 0.23 0.26 0.33 0.36 0.37 0.42 0.41 0.38 0.37 0.39 0.41 0.45 0.48 0.50 0.49 0.43 0.39 0.44 0.27 0.08 0.07 0.12 0.19 0.23 0.25 0.24 0.20 0.16
0.00 0.00 0.00 0.00 0.01 0.03 0.06 0.10 0.15 0.19 0.21 0.23 0.26 0.31 0.38 0.41 0.43 0.46 0.50 0.58 0.64 0.62 0.60 0.59 0.54 0.52 0.55 0.52 0.53 0.54 0.48 0.41 0.38 0.35 0.18 0.12 0.15 0.21 0.28 0.31 0.32 0.29 0.23
0.00 0.00 0.00 0.01 0.04 0.06 0.09 0.15 0.24 0.34 0.41 0.46 0.50 0.54 0.59 0.67 0.78 0.83 0.81 0.81 0.81 0.78 0.76 0.77 0.76 0.75 0.74 0.71 0.69 0.62 0.57 0.55 0.47 0.42 0.30 0.22 0.23 0.25 0.35 0.39 0.40 0.37 0.33
0.01 0.01 0.02 0.05 0.10 0.17 0.20 0.23 0.31 0.40 0.48 0.52 0.53 0.55 0.59 0.81 1.15 1.27 1.11 0.90 0.76 0.72 0.70 0.72 0.79 0.90 0.94 0.97 1.02 0.88 0.75 0.74 0.68 0.60 0.46 0.35 0.30 0.34 0.42 0.45 0.53 0.49 0.45
0.02 0.03 0.06 0.11 0.18 0.25 0.29 0.32 0.39 0.45 0.48 0.47 0.48 0.48 0.50 0.67 1.07 1.21 0.93 0.64 0.52 0.55 0.60 0.58 0.59 0.71 0.78 0.83 0.95 0.95 0.94 0.99 0.98 0.85 0.69 0.56 0.44 0.41 0.46 0.58 0.66 0.72 0.65
0.04 0.06 0.10 0.13 0.17 0.20 0.23 0.28 0.33 0.31 0.27 0.29 0.35 0.34 0.34 0.45 0.81 0.94 0.65 0.36 0.26 0.31 0.39 0.43 0.44 0.51 0.62 0.64 0.67 0.67 0.74 0.86 1.01 1.06 1.00 0.79 0.62 0.53 0.59 0.65 0.69 0.76 0.73
0.04 0.07 0.10 0.12 0.16 0.14 0.13 0.17 0.20 0.17 0.16 0.19 0.21 0.18 0.15 0.23 0.56 0.75 0.53 0.23 0.16 0.21 0.28 0.33 0.33 0.37 0.50 0.67 0.73 0.61 0.55 0.65 0.88 1.05 1.17 1.04 0.87 0.80 0.89 0.95 0.94 0.91 0.89
0.04 0.05 0.07 0.10 0.14 0.12 0.10 0.11 0.14 0.14 0.13 0.12 0.11 0.08 0.06 0.10 0.38 0.70 0.55 0.21 0.16 0.16 0.21 0.29 0.28 0.25 0.41 0.55 0.60 0.54 0.44 0.48 0.59 0.80 0.93 0.93 0.89 0.92 1.04 1.21 1.26 1.25 1.23
0.02 0.03 0.03 0.04 0.06 0.05 0.04 0.03 0.04 0.06 0.06 0.06 0.04 0.04 0.03 0.04 0.20 0.62 0.68 0.29 0.20 0.15 0.16 0.22 0.30 0.30 0.38 0.43 0.44 0.46 0.49 0.46 0.40 0.42 0.48 0.56 0.64 0.73 0.93 1.16 1.28 1.34 1.32
0.00 0.00 0.00 0.00 0.01 0.01 0.02 0.02 0.02 0.03 0.03 0.03 0.03 0.03 0.02 0.03 0.07 0.38 0.76 0.53 0.31 0.20 0.19 0.24 0.26 0.28 0.31 0.33 0.35 0.41 0.53 0.43 0.33 0.34 0.36 0.40 0.49 0.60 0.76 0.98 1.21 1.34 1.37
0.00 0.00 0.00 0.00 0.01 0.01 0.02 0.02 0.02 0.03 0.04 0.04 0.04 0.03 0.03 0.02 0.06 0.24 0.51 0.62 0.46 0.27 0.25 0.19 0.19 0.20 0.21 0.23 0.26 0.33 0.31 0.29 0.34 0.34 0.33 0.35 0.42 0.54 0.65 0.79 1.00 1.20 1.30
0.00 0.00 0.00 0.01 0.01 0.02 0.02 0.03 0.03 0.04 0.06 0.08 0.07 0.06 0.05 0.05 0.08 0.21 0.26 0.30 0.38 0.33 0.34 0.30 0.18 0.14 0.15 0.15 0.17 0.22 0.23 0.27 0.36 0.35 0.31 0.32 0.38 0.49 0.55 0.64 0.74 0.93 1.08
0.00 0.01 0.01 0.01 0.02 0.02 0.03 0.04 0.05 0.08 0.19 0.23 0.18 0.14 0.10 0.09 0.19 0.36 0.26 0.16 0.21 0.28 0.30 0.25 0.16 0.13 0.12 0.10 0.08 0.11 0.16 0.22 0.28 0.30 0.27 0.26 0.28 0.37 0.47 0.59 0.69 0.79 0.95
0.01 0.01 0.01 0.02 0.03 0.03 0.04 0.04 0.06 0.09 0.27 0.40 0.31 0.30 0.29 0.30 0.39 0.49 0.40 0.35 0.33 0.33 0.31 0.26 0.19 0.16 0.16 0.14 0.10 0.08 0.10 0.15 0.20 0.22 0.23 0.25 0.28 0.34 0.41 0.50 0.65 0.75 0.90
0.01 0.02 0.02 0.04 0.04 0.04 0.05 0.05 0.05 0.08 0.14 0.17 0.19 0.27 0.28 0.38 0.40 0.34 0.34 0.35 0.34 0.32 0.31 0.29 0.19 0.14 0.13 0.12 0.11 0.10 0.08 0.10 0.14 0.18 0.20 0.22 0.26 0.32 0.37 0.43 0.56 0.69 0.81
0.02 0.03 0.05 0.05 0.05 0.06 0.06 0.09 0.10 0.07 0.06 0.06 0.09 0.14 0.23 0.31 0.28 0.25 0.28 0.26 0.25 0.24 0.26 0.20 0.14 0.12 0.11 0.10 0.10 0.10 0.09 0.07 0.09 0.14 0.16 0.17 0.20 0.25 0.31 0.37 0.44 0.56 0.71
0.02 0.03 0.06 0.06 0.07 0.09 0.11 0.12 0.14 0.14 0.11 0.06 0.05 0.07 0.14 0.20 0.20 0.19 0.22 0.24 0.20 0.17 0.18 0.15 0.14 0.11 0.11 0.11 0.11 0.10 0.09 0.08 0.09 0.11 0.12 0.13 0.16 0.22 0.27 0.31 0.37 0.49 0.60
0.02 0.04 0.07 0.08 0.08 0.10 0.12 0.14 0.14 0.13 0.13 0.09 0.07 0.07 0.09 0.12 0.13 0.12 0.15 0.19 0.17 0.14 0.12 0.11 0.10 0.10 0.10 0.10 0.10 0.10 0.10 0.10 0.09 0.10 0.11 0.11 0.13 0.18 0.22 0.24 0.29 0.39 0.51
0.03 0.05 0.08 0.09 0.10 0.12 0.13 0.15 0.16 0.16 0.15 0.13 0.11 0.10 0.15 0.20 0.17 0.13 0.13 0.15 0.15 0.12 0.10 0.09 0.08 0.09 0.10 0.11 0.11 0.11 0.11 0.10 0.09 0.10 0.10 0.09 0.10 0.13 0.17 0.19 0.24 0.32 0.42
0.04 0.05 0.08 0.10 0.11 0.14 0.17 0.19 0.20 0.21 0.20 0.16 0.12 0.11 0.27 0.31 0.21 0.14 0.13 0.14 0.14 0.13 0.12 0.10 0.09 0.09 0.10 0.11 0.12 0.12 0.11 0.10 0.09 0.09 0.09 0.08 0.08 0.10 0.12 0.15 0.19 0.26 0.34
0.07 0.08 0.11 0.14 0.15 0.18 0.21 0.21 0.22 0.22 0.20 0.18 0.13 0.10 0.16 0.19 0.16 0.14 0.13 0.12 0.12 0.12 0.13 0.14 0.12 0.11 0.13 0.16 0.16 0.15 0.12 0.10 0.08 0.09 0.08 0.08 0.08 0.08 0.09 0.12 0.15 0.21 0.28
0.11 0.13 0.14 0.14 0.15 0.18 0.19 0.17 0.18 0.20 0.19 0.17 0.16 0.15 0.15 0.14 0.14 0.14 0.13 0.12 0.12 0.12 0.12 0.14 0.14 0.12 0.12 0.14 0.15 0.17 0.17 0.12 0.10 0.10 0.10 0.09 0.08 0.07 0.08 0.10 0.13 0.19 0.26
0.14 0.14 0.15 0.16 0.17 0.19 0.19 0.18 0.19 0.20 0.20 0.20 0.18 0.16 0.14 0.13 0.12 0.11 0.11 0.11 0.11 0.11 0.12 0.15 0.15 0.14 0.14 0.16 0.15 0.14 0.14 0.14 0.14 0.13 0.11 0.11 0.10 0.08 0.09 0.10 0.12 0.16 0.23
0.11 0.13 0.16 0.19 0.21 0.22 0.23 0.22 0.21 0.21 0.22 0.21 0.19 0.17 0.14 0.12 0.11 0.10 0.09 0.10 0.11 0.11 0.11 0.14 0.15 0.16 0.16 0.16 0.17 0.16 0.16 0.18 0.21 0.24 0.29 0.30 0.25 0.18 0.16 0.16 0.15 0.16 0.21
0.10 0.14 0.18 0.22 0.25 0.26 0.29 0.29 0.26 0.25 0.25 0.22 0.19 0.17 0.15 0.14 0.12 0.11 0.11 0.13 0.16 0.15 0.13 0.13 0.14 0.17 0.17 0.16 0.17 0.18 0.20 0.23 0.31 0.43 0.52 0.51 0.35 0.23 0.17 0.18 0.16 0.18 0.22

GEFSGL_prec_meanprecacc_102.txt.gz
Total_Precipitation_Accumulation
0.00 0.00 0.00 0.00 0.00 0.01 0.02 0.02 0.03 0.03 0.03 0.05 0.07 0.10 0.13 0.18 0.22 0.25 0.26 0.27 0.28 0.28 0.28 0.31 0.33 0.37 0.43 0.43 0.42 0.42 0.40 0.45 0.44 0.13 0.05 0.07 0.13 0.18 0.19 0.18 0.16 0.15 0.18
0.00 0.00 0.00 0.00 0.01 0.02 0.04 0.06 0.06 0.06 0.07 0.09 0.12 0.16 0.20 0.23 0.26 0.33 0.36 0.37 0.42 0.41 0.38 0.37 0.39 0.41 0.45 0.48 0.51 0.49 0.43 0.40 0.45 0.28 0.08 0.07 0.13 0.19 0.23 0.25 0.24 0.20 0.16
0.00 0.00 0.00 0.00 0.01 0.03 0.06 0.10 0.15 0.19 0.21 0.23 0.26 0.31 0.38 0.41 0.43 0.46 0.50 0.58 0.64 0.63 0.60 0.59 0.54 0.52 0.55 0.52 0.54 0.54 0.49 0.42 0.39 0.35 0.19 0.12 0.15 0.21 0.28 0.31 0.32 0.29 0.23
0.00 0.00 0.00 0.01 0.04 0.06 0.09 0.15 0.24 0.34 0.41 0.46 0.50 0.54 0.59 0.67 0.78 0.83 0.81 0.81 0.81 0.78 0.77 0.77 0.76 0.75 0.74 0.71 0.69 0.62 0.58 0.56 0.48 0.43 0.31 0.23 0.23 0.26 0.35 0.39 0.40 0.37 0.33
0.01 0.01 0.02 0.05 0.10 0.17 0.20 0.23 0.31 0.40 0.48 0.52 0.53 0.55 0.59 0.81 1.15 1.27 1.11 0.90 0.76 0.72 0.71 0.72 0.79 0.90 0.95 0.99 1.03 0.89 0.76 0.76 0.70 0.62 0.49 0.37 0.32 0.35 0.42 0.46 0.54 0.50 0.45
0.02 0.03 0.06 0.11 0.18 0.25 0.29 0.32 0.39 0.45 0.48 0.47 0.48 0.48 0.50 0.67 1.07 1.21 0.93 0.65 0.52 0.55 0.60 0.58 0.60 0.72 0.79 0.85 0.97 0.98 0.98 1.04 1.03 0.92 0.76 0.62 0.47 0.43 0.48 0.60 0.68 0.74 0.67
0.04 0.06 0.10 0.13 0.17 0.20 0.23 0.28 0.33 0.31 0.27 0.29 0.35 0.34 0.34 0.45 0.81 0.94 0.66 0.36 0.26 0.31 0.40 0.43 0.44 0.51 0.63 0.65 0.68 0.69 0.77 0.89 1.06 1.13 1.09 0.87 0.68 0.58 0.63 0.71 0.74 0.80 0.75
0.04 0.07 0.10 0.12 0.16 0.14 0.13 0.17 0.20 0.17 0.16 0.19 0.21 0.18 0.15 0.23 0.56 0.75 0.53 0.23 0.16 0.21 0.29 0.34 0.34 0.38 0.51 0.68 0.74 0.62 0.55 0.66 0.89 1.07 1.20 1.06 0.89 0.83 0.93 1.01 1.00 0.97 0.93
0.04 0.05 0.07 0.10 0.14 0.12 0.10 0.11 0.14 0.14 0.13 0.12 0.11 0.08 0.06 0.10 0.38 0.70 0.55 0.21 0.17 0.16 0.21 0.29 0.28 0.26 0.42 0.57 0.62 0.56 0.46 0.50 0.60 0.82 0.96 0.97 0.93 0.97 1.10 1.31 1.38 1.39 1.34
0.02 0.03 0.03 0.04 0.06 0.05 0.04 0.03 0.04 0.06 0.06 0.06 0.04 0.04 0.03 0.04 0.20 0.62 0.68 0.30 0.21 0.16 0.17 0.22 0.31 0.31 0.40 0.46 0.47 0.49 0.51 0.48 0.42 0.43 0.50 0.57 0.66 0.76 0.97 1.23 1.38 1.47 1.45
0.00 0.00 0.00 0.00 0.01 0.01 0.02 0.02 0.02 0.03 0.03 0.03 0.03 0.03 0.02 0.03 0.07 0.39 0.77 0.54 0.32 0.22 0.20 0.25 0.26 0.30 0.34 0.36 0.39 0.45 0.56 0.46 0.36 0.38 0.39 0.42 0.51 0.62 0.77 1.00 1.25 1.41 1.48
0.00 0.00 0.00 0.00 0.01 0.01 0.02 0.02 0.02 0.03 0.04 0.04 0.04 0.03 0.03 0.03 0.06 0.24 0.51 0.64 0.48 0.29 0.27 0.20 0.20 0.22 0.24 0.27 0.30 0.36 0.35 0.35 0.39 0.39 0.37 0.38 0.45 0.55 0.67 0.80 1.02 1.23 1.34
0.00 0.00 0.00 0.01 0.01 0.02 0.02 0.03 0.03 0.04 0.06 0.08 0.07 0.06 0.05 0.05 0.09 0.22 0.26 0.31 0.40 0.35 0.35 0.32 0.20 0.17 0.18 0.17 0.19 0.24 0.26 0.29 0.38 0.38 0.34 0.33 0.40 0.51 0.57 0.66 0.76 0.96 1.12
0.00 0.01 0.01 0.01 0.02 0.02 0.03 0.04 0.05 0.08 0.19 0.23 0.18 0.15 0.11 0.10 0.20 0.36 0.27 0.17 0.22 0.29 0.31 0.27 0.18 0.15 0.14 0.11 0.09 0.12 0.17 0.23 0.29 0.32 0.29 0.27 0.30 0.38 0.49 0.61 0.72 0.83 1.01
0.01 0.01 0.01 0.02 0.03 0.03 0.04 0.04 0.06 0.09 0.27 0.40 0.31 0.31 0.30 0.32 0.40 0.50 0.42 0.37 0.35 0.36 0.34 0.29 0.21 0.17 0.17 0.15 0.11 0.09 0.11 0.16 0.21 0.23 0.24 0.27 0.30 0.36 0.43 0.52 0.68 0.79 0.95
0.01 0.02 0.02 0.04 0.04 0.04 0.05 0.05 0.05 0.08 0.14 0.17 0.19 0.28 0.29 0.39 0.42 0.36 0.35 0.37 0.36 0.35 0.35 0.32 0.21 0.15 0.14 0.13 0.12 0.11 0.09 0.11 0.15 0.19 0.22 0.25 0.29 0.34 0.40 0.45 0.58 0.73 0.85
0.02 0.03 0.05 0.05 0.05 0.06 0.07 0.09 0.10 0.07 0.06 0.07 0.09 0.14 0.24 0.31 0.29 0.26 0.29 0.28 0.27 0.26 0.28 0.22 0.15 0.14 0.13 0.12 0.11 0.11 0.10 0.08 0.10 0.16 0.18 0.19 0.22 0.28 0.34 0.40 0.47 0.59 0.74
0.02 0.03 0.06 0.06 0.07 0.09 0.11 0.12 0.14 0.14 0.11 0.06 0.05 0.07 0.14 0.21 0.21 0.20 0.23 0.25 0.21 0.18 0.18 0.16 0.15 0.13 0.12 0.12 0.12 0.11 0.10 0.09 0.11 0.13 0.14 0.15 0.18 0.25 0.29 0.33 0.39 0.51 0.63
0.02 0.04 0.07 0.08 0.08 0.10 0.12 0.14 0.14 0.14 0.13 0.10 0.07 0.07 0.09 0.12 0.13 0.12 0.15 0.20 0.18 0.14 0.12 0.12 0.11 0.11 0.11 0.11 0.11 0.11 0.12 0.11 0.10 0.11 0.12 0.13 0.15 0.20 0.25 0.26 0.32 0.41 0.54
0.03 0.05 0.08 0.09 0.10 0.12 0.14 0.16 0.16 0.17 0.16 0.14 0.11 0.10 0.16 0.20 0.18 0.13 0.14 0.16 0.16 0.13 0.11 0.10 0.09 0.09 0.11 0.12 0.12 0.13 0.13 0.12 0.11 0.12 0.12 0.11 0.12 0.15 0.20 0.22 0.27 0.35 0.45
0.04 0.05 0.08 0.10 0.12 0.14 0.18 0.20 0.21 0.22 0.21 0.17 0.12 0.11 0.27 0.33 0.23 0.15 0.14 0.14 0.15 0.15 0.13 0.11 0.10 0.10 0.11 0.12 0.13 0.13 0.13 0.11 0.10 0.11 0.11 0.10 0.10 0.12 0.14 0.18 0.22 0.28 0.37
0.07 0.08 0.11 0.14 0.15 0.18 0.21 0.22 0.23 0.23 0.21 0.19 0.14 0.11 0.17 0.20 0.17 0.15 0.14 0.13 0.12 0.13 0.14 0.15 0.13 0.12 0.14 0.17 0.18 0.17 0.14 0.12 0.10 0.10 0.10 0.10 0.10 0.10 0.11 0.14 0.17 0.23 0.31
0.11 0.14 0.14 0.14 0.16 0.19 0.19 0.17 0.19 0.21 0.20 0.18 0.16 0.16 0.15 0.15 0.14 0.14 0.14 0.12 0.12 0.12 0.12 0.15 0.15 0.13 0.13 0.15 0.16 0.19 0.19 0.14 0.11 0.12 0.13 0.11 0.10 0.09 0.10 0.12 0.15 0.21 0.28
0.14 0.14 0.15 0.16 0.18 0.20 0.20 0.19 0.19 0.21 0.21 0.20 0.19 0.17 0.15 0.14 0.13 0.12 0.12 0.11 0.12 0.12 0.12 0.15 0.16 0.15 0.15 0.17 0.16 0.15 0.16 0.15 0.16 0.15 0.14 0.13 0.12 0.10 0.11 0.13 0.14 0.18 0.25
0.11 0.14 0.16 0.20 0.22 0.23 0.24 0.23 0.21 0.22 0.22 0.22 0.20 0.17 0.15 0.13 0.12 0.11 0.10 0.11 0.12 0.12 0.12 0.14 0.17 0.17 0.17 0.17 0.18 0.18 0.17 0.19 0.23 0.27 0.32 0.34 0.28 0.21 0.18 0.18 0.17 0.18 0.23
0.11 0.14 0.19 0.23 0.26 0.27 0.30 0.30 0.27 0.26 0.26 0.23 0.20 0.18 0.16 0.15 0.13 0.12 0.12 0.14 0.17 0.16 0.14 0.14 0.15 0.18 0.18 0.17 0.17 0.19 0.21 0.25 0.33 0.45 0.56 0.55 0.39 0.25 0.20 0.20 0.19 0.20 0.24